, AK

(GMT )
Tin City

Weather History for PATC - August, 2013

Change the Weather History Date:

Saturday, August 3, 2013

  Actual Average Record
Temperature  
Mean Temperature 50 °F -  
Max Temperature 55 °F 49 °F 63 °F (2014)
Min Temperature 43 °F 42 °F 37 °F (2008)
Degree Days  
Heating Degree Days 16    
Moisture  
Dew Point 47 °F    
Average Humidity 100    
Maximum Humidity 100    
Minimum Humidity 99    
Precipitation  
Precipitation 0.28 in - - ()
Sea Level Pressure  
Sea Level Pressure 29.55 in    
Wind  
Wind Speed 16 mph (NNE)    
Max Wind Speed 26 mph    
Max Gust Speed 23 mph    
Visibility 3 miles    
Events Fog , Rain    
Averages and records for this station are not official NWS values.
T = Trace of Precipitation, MM = Missing Value Source: NWS Daily Summary

Daily Weather History Graph

Daily Weather History Graph

Search for Another Location

Airport or City:

Astronomy

Aug. 03, 2013 Rise Set
Actual Time 6:12 AM AKDT 12:20 AM AKDT
Civil Twilight 4:28 AM AKDT 1:59 AM AKDT
Nautical Twilight Sun does not set Sun does not set
Astronomical Twilight Sun does not set Sun does not set
Moon 3:13 AM AKDT (8/3) 10:21 PM AKDT (8/3)
Length of Visible Light 21h 31m
Length of Day
18h 08m
Waning Crescent, 9% of the Moon is Illuminated
Aug 3
Waning Crescent
Aug 6
New
Aug 14
First Quarter
Aug 20
Full
Aug 28
Last Quarter

Hourly Weather History & Observations

Time (AKDT) Temp. Windchill Dew Point Humidity Pressure Visibility Wind Dir Wind Speed Gust Speed Precip Events Conditions
12:07 AM 55.4 °F - 55.4 °F 100% 29.58 in 0.5 mi NNW 2.3 mph - N/A Fog Fog
12:47 AM 51.8 °F - 51.8 °F 100% 29.58 in 0.5 mi ENE 5.8 mph - N/A Fog Fog
12:55 AM 51.8 °F - 52.3 °F 100% 29.58 in 0.8 mi Variable 6.9 mph - N/A   Mist
1:07 AM 51.8 °F - 51.8 °F 100% 29.58 in 1.2 mi ENE 6.9 mph - N/A   Mostly Cloudy
1:27 AM 50.0 °F - 50.0 °F 100% 29.58 in 0.2 mi NE 12.7 mph - N/A Fog Fog
1:47 AM - - - N/A% 29.58 in 4.0 mi NE 16.1 mph - N/A Rain Light Rain
1:55 AM - - - N/A% 29.58 in 10.0 mi NE 15.0 mph - N/A Rain Light Rain
2:47 AM 48.2 °F - 48.2 °F 100% 29.57 in 2.5 mi NE 16.1 mph - N/A Rain Light Rain
2:55 AM 48.6 °F - 48.7 °F 100% 29.57 in 1.8 mi NNE 16.1 mph - 0.02 in Rain Light Rain Showers
3:07 AM 48.2 °F - 48.2 °F 100% 29.57 in 2.0 mi NNE 17.3 mph - N/A Rain Rain Showers
3:47 AM 48.2 °F - 48.2 °F 100% 29.57 in 2.5 mi NNE 17.3 mph - N/A Rain Light Rain Showers
3:55 AM 47.8 °F - 48.0 °F 100% 29.57 in 1.8 mi NNE 16.1 mph - 0.07 in Rain Light Rain Showers
4:07 AM 48.2 °F - 48.2 °F 100% 29.57 in 4.0 mi NNE 17.3 mph - N/A Rain Light Rain Showers
4:27 AM 48.2 °F - 48.2 °F 100% 29.57 in 1.2 mi NNE 17.3 mph - N/A Rain Light Rain Showers
4:47 AM 48.2 °F - 48.2 °F 100% 29.57 in 1.5 mi NNE 18.4 mph - N/A Rain Light Rain
4:55 AM 47.3 °F - 47.5 °F 100% 29.57 in 3.0 mi NNE 19.6 mph - 0.04 in Rain Light Rain
5:07 AM - - - N/A% 29.57 in 1.8 mi NNE 17.3 mph 23.0 mph N/A Rain Light Rain
5:27 AM - - - N/A% 29.56 in 3.0 mi NNE 18.4 mph - N/A Rain Light Rain Showers
5:47 AM - - - N/A% 29.56 in 1.2 mi NNE 18.4 mph - N/A Rain Light Rain Showers
5:55 AM - - - N/A% 29.56 in 1.8 mi NNE 18.4 mph - 0.03 in Rain Light Rain Showers
6:27 AM 46.4 °F 39.2 °F 46.4 °F 100% 29.56 in 0.8 mi NNE 18.4 mph - N/A Rain Light Rain Showers
6:47 AM 46.4 °F 39.0 °F 46.4 °F 100% 29.56 in 1.2 mi NNE 19.6 mph - N/A Rain Light Rain Showers
6:55 AM 46.8 °F - 46.9 °F 100% 29.56 in 1.0 mi NNE 19.6 mph - 0.00 in Rain Light Rain Showers
7:27 AM 46.4 °F 39.2 °F 46.4 °F 100% 29.56 in 1.2 mi NNE 18.4 mph - N/A Rain Light Rain Showers
7:48 AM 46.4 °F 39.0 °F 46.4 °F 100% 29.55 in 0.8 mi NNE 19.6 mph - N/A Rain Light Rain Showers
7:55 AM 46.4 °F 39.0 °F 46.6 °F 100% 29.55 in 1.0 mi NNE 19.6 mph - N/A Rain Light Rain Showers
8:08 AM 46.4 °F 38.7 °F 46.4 °F 100% 29.55 in 0.5 mi NNE 20.7 mph - N/A Fog Fog
8:28 AM 46.4 °F 38.7 °F 46.4 °F 100% 29.55 in 0.2 mi NNE 20.7 mph - N/A Fog , Rain Light Rain Showers
8:55 AM 46.2 °F 38.5 °F 46.6 °F 100% 29.55 in 0.2 mi NNE 20.7 mph - 0.00 in Fog , Rain Light Rain
9:55 AM 46.4 °F 38.3 °F 46.8 °F 100% 29.55 in 0.2 mi NNE 23.0 mph - 0.00 in Fog , Rain Light Rain
10:55 AM 46.2 °F 38.3 °F 46.4 °F 100% 29.54 in 0.2 mi NNE 21.9 mph - N/A Fog , Rain Light Rain
11:55 AM 46.2 °F 38.1 °F 46.6 °F 100% 29.53 in 0.2 mi NNE 23.0 mph - 0.00 in Fog , Rain Light Rain
12:08 PM 46.4 °F 38.3 °F 46.4 °F 100% 29.53 in 0.5 mi NNE 23.0 mph - N/A Fog , Rain Light Rain
12:28 PM 46.4 °F 37.9 °F 46.4 °F 100% 29.53 in 0.2 mi NNE 25.3 mph - N/A Fog , Rain Light Rain
12:55 PM 46.2 °F 38.1 °F 46.8 °F 100% 29.53 in 0.2 mi NNE 23.0 mph - 0.00 in Fog Light Drizzle
1:28 PM 46.4 °F 37.9 °F 46.4 °F 100% 29.52 in 0.5 mi NNE 25.3 mph - N/A Fog , Rain Light Rain
1:55 PM 46.8 °F - 46.9 °F 100% 29.53 in 0.8 mi NNE 24.2 mph - N/A   Drizzle
2:08 PM 46.4 °F 38.3 °F 46.4 °F 100% 29.52 in 5.0 mi NNE 23.0 mph - N/A Rain Light Rain Showers
2:28 PM 46.4 °F 38.1 °F 46.4 °F 100% 29.52 in 1.2 mi NNE 24.2 mph - N/A Rain Light Rain Showers
2:48 PM 46.4 °F 37.7 °F 46.4 °F 100% 29.52 in 8.0 mi NNE 26.5 mph - N/A Rain Light Rain Showers
2:55 PM 46.8 °F - 47.1 °F 100% 29.52 in 7.0 mi NNE 26.5 mph - 0.00 in Rain Light Rain Showers
3:08 PM 46.4 °F 37.7 °F 46.4 °F 100% 29.52 in 1.0 mi NNE 26.5 mph - N/A Rain Light Rain Showers
3:48 PM 46.4 °F 37.9 °F 46.4 °F 100% 29.52 in 1.0 mi NNE 25.3 mph - N/A Rain Light Rain Showers
3:55 PM 46.9 °F - 46.9 °F 100% 29.52 in 1.2 mi NNE 24.2 mph - N/A Rain Light Rain Showers
4:08 PM 46.4 °F 38.5 °F 46.4 °F 100% 29.53 in 4.0 mi NNE 21.9 mph - N/A Rain Light Rain Showers
4:28 PM 46.4 °F 38.1 °F 46.4 °F 100% 29.52 in 2.0 mi NNE 24.2 mph - N/A Rain Heavy Rain Showers
4:48 PM 46.4 °F 38.3 °F 46.4 °F 100% 29.52 in 4.0 mi NNE 23.0 mph - N/A Rain Rain Showers
5:55 PM 45.7 °F 36.7 °F 45.9 °F 100% 29.52 in 10.0 mi NNE 26.5 mph - 0.08 in Rain Light Rain
6:48 PM 46.4 °F 37.9 °F 46.4 °F 100% 29.52 in 10.0 mi NNE 25.3 mph - N/A   Mostly Cloudy
6:55 PM 45.7 °F 36.9 °F 45.5 °F 99% 29.52 in 10.0 mi NNE 25.3 mph - 0.00 in Rain Light Rain Showers
7:55 PM 45.5 °F 37.3 °F 45.5 °F 100% 29.52 in 10.0 mi NNE 21.9 mph - 0.00 in Rain Light Rain
8:48 PM 44.6 °F 35.7 °F 44.6 °F 100% 29.52 in 10.0 mi NNE 24.2 mph - N/A Rain Light Rain
8:55 PM 44.8 °F 36.2 °F 44.6 °F 99% 29.53 in 9.0 mi NNE 23.0 mph - 0.02 in Rain Light Rain
9:28 PM 44.6 °F 36.1 °F 44.6 °F 100% 29.52 in 10.0 mi NNE 21.9 mph - N/A Rain Light Rain
9:55 PM 44.6 °F 35.9 °F 44.4 °F 99% 29.53 in 8.0 mi NNE 23.0 mph - 0.02 in Rain Light Rain
10:48 PM 44.6 °F 36.4 °F 44.6 °F 100% 29.54 in 2.5 mi NNE 20.7 mph - N/A Rain Light Rain Showers
10:55 PM 44.2 °F 35.7 °F 44.4 °F 100% 29.54 in 2.0 mi NNE 21.9 mph - N/A Rain Light Rain Showers
11:08 PM 44.6 °F 35.9 °F 44.6 °F 100% 29.54 in 3.0 mi NNE 23.0 mph - N/A Rain Light Rain Showers
11:28 PM 44.6 °F 35.9 °F 44.6 °F 100% 29.54 in 2.5 mi NNE 23.0 mph - N/A Rain Light Rain
11:48 PM 44.6 °F 35.9 °F 44.6 °F 100% 29.54 in 3.0 mi NNE 23.0 mph - N/A Rain Light Rain
11:55 PM 43.9 °F 34.7 °F 44.1 °F 100% 29.54 in 4.0 mi NNE 24.2 mph - 0.00 in Rain Light Rain